BEL8KA EBBR-LIRF

Flight info

Callsign BEL8KA
Flight time 1h 44m
Altitude 37000
Route ROUSY DCT GTQ DCT DEVDI DCT ODINA DCT EKPAL DCT TINKU DCT XIBIL
Aircraft A320/M-SDE3FGHIRWY/LB1

Departure

Time 2026-05-07 13:17
Airport Brussels Airport (EBBR)

Arrival

Time 2026-05-07 15:02
Airport Rome–Fiumicino Leonardo da Vinci International Airport (LIRF)
Time Latitude Longitude Altitude Speed Heading
2026-05-07 12:51 50.90350 4.48824 121 ft 0 kts 335°
2026-05-07 13:03 50.90335 4.48835 117 ft 4 kts 339°
2026-05-07 13:03 50.90309 4.48848 120 ft 4 kts 350°
2026-05-07 13:03 50.90283 4.48851 119 ft 4 kts 11°
2026-05-07 13:03 50.90261 4.48835 121 ft 3 kts 61°
2026-05-07 13:04 50.90260 4.48830 121 ft 0 kts 65°
2026-05-07 13:07 50.90269 4.48862 120 ft 3 kts 65°
2026-05-07 13:07 50.90277 4.48891 124 ft 2 kts 65°
2026-05-07 13:07 50.90283 4.48910 121 ft 3 kts 65°
2026-05-07 13:08 50.90305 4.48985 123 ft 9 kts 65°
2026-05-07 13:08 50.90332 4.49078 123 ft 11 kts 65°
2026-05-07 13:08 50.90372 4.49218 122 ft 15 kts 66°
2026-05-07 13:08 50.90411 4.49361 121 ft 12 kts 66°
2026-05-07 13:09 50.90390 4.49460 124 ft 11 kts 176°
2026-05-07 13:09 50.90325 4.49425 123 ft 9 kts 200°
2026-05-07 13:09 50.90270 4.49400 125 ft 7 kts 194°
2026-05-07 13:09 50.90196 4.49371 128 ft 15 kts 194°
2026-05-07 13:10 50.90068 4.49319 129 ft 23 kts 196°
2026-05-07 13:10 50.89888 4.49244 138 ft 29 kts 194°
2026-05-07 13:10 50.89684 4.49163 150 ft 21 kts 192°
2026-05-07 13:10 50.89591 4.49088 156 ft 14 kts 215°
2026-05-07 13:11 50.89516 4.49045 157 ft 9 kts 193°
2026-05-07 13:11 50.89460 4.49024 159 ft 9 kts 193°
2026-05-07 13:11 50.89392 4.48998 162 ft 9 kts 193°
2026-05-07 13:11 50.89336 4.48974 164 ft 10 kts 200°
2026-05-07 13:12 50.89290 4.48873 165 ft 13 kts 250°
2026-05-07 13:12 50.89260 4.48741 164 ft 12 kts 250°
2026-05-07 13:12 50.89230 4.48612 164 ft 15 kts 250°
2026-05-07 13:12 50.89193 4.48450 164 ft 16 kts 249°
2026-05-07 13:13 50.89151 4.48268 164 ft 18 kts 250°
2026-05-07 13:13 50.89111 4.48101 164 ft 17 kts 250°
2026-05-07 13:13 50.89083 4.47975 164 ft 11 kts 250°
2026-05-07 13:13 50.89032 4.47894 167 ft 10 kts 192°
2026-05-07 13:14 50.88992 4.47907 172 ft 3 kts 157°
2026-05-07 13:14 50.88958 4.47933 175 ft 8 kts 146°
2026-05-07 13:14 50.88938 4.48025 178 ft 11 kts 98°
2026-05-07 13:14 50.88933 4.48175 179 ft 15 kts 78°
2026-05-07 13:15 50.88976 4.48352 178 ft 19 kts 70°
2026-05-07 13:15 50.89024 4.48560 178 ft 22 kts 70°
2026-05-07 13:15 50.89077 4.48796 177 ft 24 kts 70°
2026-05-07 13:15 50.89130 4.49024 177 ft 13 kts 70°
2026-05-07 13:16 50.89141 4.49070 176 ft 0 kts 69°
2026-05-07 13:16 50.89207 4.49346 176 ft 71 kts 69°
2026-05-07 13:17 50.89475 4.50507 176 ft 151 kts 70°
2026-05-07 13:17 50.89869 4.52205 863 ft 158 kts 69°
2026-05-07 13:17 50.90281 4.53756 2001 ft 149 kts 64°
2026-05-07 13:17 50.90707 4.55140 2805 ft 137 kts 64°
2026-05-07 13:18 50.91159 4.56556 3140 ft 148 kts 62°
2026-05-07 13:18 50.91641 4.57991 3612 ft 152 kts 62°
2026-05-07 13:18 50.92151 4.59549 3921 ft 166 kts 63°
2026-05-07 13:18 50.92721 4.61314 4100 ft 195 kts 62°
2026-05-07 13:19 50.93401 4.63329 4368 ft 218 kts 61°
2026-05-07 13:19 50.94010 4.65696 4636 ft 246 kts 72°
2026-05-07 13:19 50.94525 4.68396 5192 ft 262 kts 73°
2026-05-07 13:19 50.95058 4.71181 6049 ft 267 kts 72°
2026-05-07 13:20 50.95447 4.74089 6843 ft 273 kts 88°
2026-05-07 13:20 50.95192 4.77090 7604 ft 279 kts 109°
2026-05-07 13:20 50.94279 4.79808 8452 ft 280 kts 129°
2026-05-07 13:20 50.92872 4.81954 9334 ft 282 kts 142°
2026-05-07 13:21 50.91338 4.83909 10207 ft 285 kts 142°
2026-05-07 13:21 50.89778 4.85902 10891 ft 292 kts 144°
2026-05-07 13:21 50.87953 4.87560 11155 ft 313 kts 160°
2026-05-07 13:21 50.85786 4.88399 11555 ft 327 kts 175°
2026-05-07 13:22 50.83489 4.88603 12186 ft 334 kts 178°
2026-05-07 13:22 50.81154 4.88892 12907 ft 339 kts 175°
2026-05-07 13:22 50.78796 4.89277 13632 ft 343 kts 175°
2026-05-07 13:22 50.76441 4.89694 14287 ft 347 kts 175°
2026-05-07 13:23 50.74030 4.90125 14945 ft 350 kts 175°
2026-05-07 13:23 50.71599 4.90546 15602 ft 353 kts 175°
2026-05-07 13:23 50.69150 4.91054 16241 ft 357 kts 169°
2026-05-07 13:23 50.66766 4.92255 16881 ft 363 kts 157°
2026-05-07 13:24 50.64568 4.94244 17517 ft 368 kts 145°
2026-05-07 13:24 50.62645 4.96937 18145 ft 373 kts 136°
2026-05-07 13:24 50.60796 4.99825 18718 ft 376 kts 136°
2026-05-07 13:24 50.58928 5.02732 19270 ft 379 kts 137°
2026-05-07 13:25 50.57044 5.05653 19811 ft 382 kts 137°
2026-05-07 13:25 50.55143 5.08589 20366 ft 385 kts 137°
2026-05-07 13:25 50.53222 5.11546 20908 ft 387 kts 137°
2026-05-07 13:25 50.51288 5.14522 21460 ft 390 kts 137°
2026-05-07 13:26 50.49339 5.17521 22004 ft 393 kts 137°
2026-05-07 13:26 50.47377 5.20537 22539 ft 397 kts 137°
2026-05-07 13:26 50.45396 5.23578 23072 ft 400 kts 137°
2026-05-07 13:26 50.43401 5.26640 23589 ft 403 kts 137°
2026-05-07 13:27 50.41388 5.29726 24022 ft 406 kts 137°
2026-05-07 13:27 50.39365 5.32827 24447 ft 408 kts 137°
2026-05-07 13:27 50.37354 5.35910 24854 ft 411 kts 137°
2026-05-07 13:27 50.35305 5.39049 25260 ft 413 kts 137°
2026-05-07 13:28 50.33245 5.42196 25662 ft 415 kts 137°
2026-05-07 13:28 50.31164 5.45366 26047 ft 418 kts 137°
2026-05-07 13:28 50.29073 5.48541 26420 ft 420 kts 137°
2026-05-07 13:28 50.26966 5.51730 26796 ft 423 kts 137°
2026-05-07 13:29 50.24845 5.54936 27165 ft 425 kts 137°
2026-05-07 13:29 50.22713 5.58159 27526 ft 428 kts 137°
2026-05-07 13:29 50.20571 5.61402 27891 ft 430 kts 137°
2026-05-07 13:29 50.18419 5.64662 28245 ft 432 kts 137°
2026-05-07 13:30 50.16252 5.67937 28604 ft 435 kts 137°
2026-05-07 13:30 50.14073 5.71226 28926 ft 437 kts 137°
2026-05-07 13:30 50.11884 5.74524 29248 ft 439 kts 137°
2026-05-07 13:30 50.09636 5.77755 29575 ft 441 kts 142°
2026-05-07 13:31 50.07102 5.80457 29888 ft 441 kts 152°
2026-05-07 13:31 50.04324 5.82474 30174 ft 442 kts 161°
2026-05-07 13:31 50.01403 5.83995 30400 ft 443 kts 163°
2026-05-07 13:31 49.98466 5.85506 30644 ft 445 kts 163°
2026-05-07 13:32 49.95519 5.87028 30883 ft 447 kts 163°
2026-05-07 13:32 49.92560 5.88559 31117 ft 449 kts 163°
2026-05-07 13:32 49.89629 5.90073 31374 ft 450 kts 163°
2026-05-07 13:32 49.86663 5.91601 31697 ft 450 kts 163°
2026-05-07 13:33 49.83652 5.93149 31995 ft 450 kts 163°
2026-05-07 13:33 49.80724 5.94650 32305 ft 450 kts 163°
2026-05-07 13:33 49.77750 5.96172 32593 ft 450 kts 163°
2026-05-07 13:33 49.74777 5.97691 32892 ft 450 kts 163°
2026-05-07 13:34 49.71801 5.99213 33195 ft 450 kts 163°
2026-05-07 13:34 49.65853 6.02246 33812 ft 450 kts 163°
2026-05-07 13:34 49.62878 6.03762 34112 ft 450 kts 163°
2026-05-07 13:35 49.59909 6.05277 34368 ft 450 kts 163°
2026-05-07 13:35 49.56939 6.06791 34615 ft 449 kts 163°
2026-05-07 13:35 49.53972 6.08300 34863 ft 449 kts 163°
2026-05-07 13:35 49.51002 6.09803 35102 ft 449 kts 163°
2026-05-07 13:36 49.48031 6.11302 35338 ft 448 kts 163°
2026-05-07 13:36 49.45074 6.12808 35575 ft 448 kts 163°
2026-05-07 13:36 49.42118 6.14333 35807 ft 447 kts 163°
2026-05-07 13:36 49.39171 6.15855 36023 ft 447 kts 163°
2026-05-07 13:37 49.36266 6.17358 36245 ft 446 kts 163°
2026-05-07 13:37 49.33322 6.18888 36429 ft 446 kts 163°
2026-05-07 13:37 49.30376 6.20427 36633 ft 446 kts 163°
2026-05-07 13:37 49.27439 6.21962 36842 ft 446 kts 163°
2026-05-07 13:38 49.24498 6.23498 37010 ft 446 kts 163°
2026-05-07 13:38 49.18623 6.26561 37054 ft 446 kts 163°
2026-05-07 13:39 49.12747 6.29619 37047 ft 446 kts 163°
2026-05-07 13:39 49.06926 6.32900 37059 ft 447 kts 153°
2026-05-07 13:39 49.04395 6.35641 37057 ft 449 kts 137°
2026-05-07 13:40 49.02430 6.39348 37058 ft 452 kts 121°
2026-05-07 13:40 49.01208 6.43753 37053 ft 454 kts 104°
2026-05-07 13:40 49.00686 6.48486 37046 ft 454 kts 98°
2026-05-07 13:41 48.99847 6.58034 37032 ft 455 kts 99°
2026-05-07 13:41 48.99138 6.62715 37024 ft 454 kts 111°
2026-05-07 13:41 48.97845 6.67078 37024 ft 451 kts 122°
2026-05-07 13:41 48.96030 6.70942 37026 ft 448 kts 134°
2026-05-07 13:42 48.93771 6.74193 37025 ft 445 kts 145°
2026-05-07 13:42 48.91172 6.76706 37026 ft 442 kts 156°
2026-05-07 13:42 48.88376 6.78639 37028 ft 441 kts 158°
2026-05-07 13:43 48.82760 6.82444 37022 ft 442 kts 158°
2026-05-07 13:43 48.77139 6.86260 37027 ft 443 kts 158°
2026-05-07 13:44 48.71547 6.90060 37031 ft 444 kts 158°
2026-05-07 13:44 48.65903 6.93879 37039 ft 444 kts 158°
2026-05-07 13:45 48.60255 6.97685 37043 ft 445 kts 158°
2026-05-07 13:45 48.54591 7.01495 37049 ft 445 kts 158°
2026-05-07 13:46 48.48928 7.05292 37049 ft 445 kts 158°
2026-05-07 13:46 48.43257 7.09087 37044 ft 445 kts 159°
2026-05-07 13:47 48.37588 7.12868 37046 ft 445 kts 159°
2026-05-07 13:47 48.31919 7.16640 37063 ft 446 kts 159°
2026-05-07 13:48 48.26283 7.20387 37059 ft 445 kts 159°
2026-05-07 13:48 48.20618 7.24144 37049 ft 445 kts 159°
2026-05-07 13:49 48.14952 7.27890 37052 ft 445 kts 159°
2026-05-07 13:49 48.10198 7.31022 37057 ft 445 kts 159°
2026-05-07 13:50 48.04523 7.34752 37055 ft 445 kts 159°
2026-05-07 13:50 47.97934 7.39087 37042 ft 445 kts 159°
2026-05-07 13:51 47.93218 7.42177 37041 ft 445 kts 159°
2026-05-07 13:51 47.87546 7.45884 37036 ft 445 kts 159°
2026-05-07 13:52 47.81874 7.49580 37028 ft 445 kts 159°
2026-05-07 13:52 47.76200 7.53264 37010 ft 445 kts 160°
2026-05-07 13:53 47.70544 7.57003 37018 ft 445 kts 158°
2026-05-07 13:53 47.64951 7.60974 37022 ft 446 kts 157°
2026-05-07 13:54 47.59365 7.64995 37021 ft 446 kts 157°
2026-05-07 13:54 47.53766 7.68959 37011 ft 446 kts 158°
2026-05-07 13:55 47.48158 7.72882 37011 ft 446 kts 158°
2026-05-07 13:55 47.42537 7.76794 37016 ft 446 kts 158°
2026-05-07 13:56 47.36921 7.80704 37020 ft 446 kts 158°
2026-05-07 13:56 47.31306 7.84615 37004 ft 446 kts 158°
2026-05-07 13:57 47.25684 7.88517 37018 ft 447 kts 159°
2026-05-07 13:57 47.20060 7.92408 37021 ft 447 kts 159°
2026-05-07 13:58 47.14432 7.96293 37022 ft 446 kts 159°
2026-05-07 13:58 47.08807 8.00169 37018 ft 446 kts 159°
2026-05-07 13:59 47.03216 8.04007 37019 ft 447 kts 159°
2026-05-07 13:59 46.97583 8.07873 37025 ft 447 kts 159°
2026-05-07 14:00 46.91942 8.11729 37024 ft 447 kts 159°
2026-05-07 14:00 46.86296 8.15578 37009 ft 447 kts 159°
2026-05-07 14:01 46.80654 8.19420 37025 ft 448 kts 159°
2026-05-07 14:01 46.75007 8.23258 37031 ft 448 kts 159°
2026-05-07 14:02 46.69362 8.27078 37033 ft 447 kts 159°
2026-05-07 14:02 46.63709 8.30897 37020 ft 447 kts 160°
2026-05-07 14:03 46.58065 8.34713 37017 ft 447 kts 160°
2026-05-07 14:03 46.52420 8.38516 37009 ft 446 kts 160°
2026-05-07 14:04 46.46822 8.42272 36984 ft 446 kts 160°
2026-05-07 14:04 46.41187 8.46042 36981 ft 446 kts 160°
2026-05-07 14:05 46.35555 8.49806 36979 ft 445 kts 160°
2026-05-07 14:05 46.29920 8.53557 36974 ft 446 kts 160°
2026-05-07 14:06 46.24282 8.57301 36948 ft 445 kts 160°
2026-05-07 14:06 46.18653 8.61043 36961 ft 446 kts 160°
2026-05-07 14:07 46.13007 8.64784 36960 ft 446 kts 160°
2026-05-07 14:07 46.07584 8.69217 36959 ft 452 kts 150°
2026-05-07 14:08 46.02344 8.74243 36976 ft 453 kts 151°
2026-05-07 14:08 45.97116 8.79218 36982 ft 453 kts 152°
2026-05-07 14:09 45.91903 8.84167 36988 ft 454 kts 152°
2026-05-07 14:09 45.86636 8.89157 36985 ft 453 kts 152°
2026-05-07 14:10 45.81358 8.94149 36963 ft 454 kts 152°
2026-05-07 14:10 45.76090 8.99128 36977 ft 454 kts 152°
2026-05-07 14:11 45.70799 9.04112 36997 ft 454 kts 152°
2026-05-07 14:11 45.65517 9.09061 36990 ft 454 kts 152°
2026-05-07 14:12 45.60233 9.14007 36954 ft 454 kts 152°
2026-05-07 14:12 45.54945 9.18952 36960 ft 454 kts 152°
2026-05-07 14:13 45.49666 9.23878 36970 ft 453 kts 152°
2026-05-07 14:13 45.44419 9.28756 36970 ft 453 kts 152°
2026-05-07 14:14 45.39140 9.33667 36949 ft 453 kts 153°
2026-05-07 14:14 45.33871 9.38567 36997 ft 452 kts 153°
2026-05-07 14:15 45.28593 9.43451 36991 ft 452 kts 153°
2026-05-07 14:15 45.23357 9.48272 36983 ft 452 kts 153°
2026-05-07 14:16 45.18078 9.53125 36974 ft 452 kts 153°
2026-05-07 14:16 45.12802 9.57972 36965 ft 452 kts 153°
2026-05-07 14:17 45.07525 9.62806 36958 ft 452 kts 153°
2026-05-07 14:17 45.02245 9.67629 36967 ft 451 kts 153°
2026-05-07 14:18 44.96960 9.72446 36944 ft 452 kts 153°
2026-05-07 14:18 44.91679 9.77253 36968 ft 451 kts 153°
2026-05-07 14:19 44.86399 9.82051 36978 ft 451 kts 153°
2026-05-07 14:19 44.81118 9.86841 36981 ft 451 kts 153°
2026-05-07 14:20 44.75835 9.91621 36952 ft 451 kts 154°
2026-05-07 14:20 44.70548 9.96384 36979 ft 451 kts 154°
2026-05-07 14:21 44.65262 10.01142 36987 ft 450 kts 154°
2026-05-07 14:21 44.59988 10.05887 36985 ft 450 kts 154°
2026-05-07 14:22 44.54707 10.10616 36987 ft 450 kts 154°
2026-05-07 14:22 44.49421 10.15315 36988 ft 448 kts 157°
2026-05-07 14:23 44.43823 10.18687 36994 ft 438 kts 166°
2026-05-07 14:23 44.38118 10.21698 36990 ft 438 kts 166°
2026-05-07 14:24 44.32414 10.24722 36997 ft 439 kts 166°
2026-05-07 14:24 44.26702 10.27746 37022 ft 438 kts 166°
2026-05-07 14:25 44.21007 10.30748 37024 ft 438 kts 166°
2026-05-07 14:25 44.15299 10.33738 37013 ft 438 kts 166°
2026-05-07 14:26 44.09600 10.36716 36999 ft 437 kts 166°
2026-05-07 14:26 44.03909 10.39686 37018 ft 437 kts 166°
2026-05-07 14:27 43.98226 10.42670 37026 ft 436 kts 166°
2026-05-07 14:27 43.92541 10.45631 37023 ft 436 kts 166°
2026-05-07 14:28 43.86895 10.48560 37033 ft 435 kts 166°
2026-05-07 14:28 43.81218 10.51500 37039 ft 435 kts 166°
2026-05-07 14:29 43.75544 10.54443 37040 ft 434 kts 167°
2026-05-07 14:29 43.69844 10.57180 37035 ft 432 kts 169°
2026-05-07 14:30 43.64134 10.59764 37017 ft 431 kts 169°
2026-05-07 14:30 43.58433 10.62354 37005 ft 431 kts 169°
2026-05-07 14:31 43.52737 10.64995 36996 ft 432 kts 169°
2026-05-07 14:31 43.47045 10.67642 37002 ft 432 kts 169°
2026-05-07 14:32 43.42318 10.69830 37004 ft 431 kts 169°
2026-05-07 14:32 43.35708 10.72874 37000 ft 431 kts 169°
2026-05-07 14:33 43.30019 10.75488 36978 ft 431 kts 169°
2026-05-07 14:33 43.27161 10.76796 36597 ft 436 kts 169°
2026-05-07 14:33 43.25219 10.77684 36192 ft 435 kts 169°
2026-05-07 14:33 43.22367 10.78996 35686 ft 431 kts 169°
2026-05-07 14:34 43.19536 10.80299 35175 ft 427 kts 170°
2026-05-07 14:34 43.16727 10.81587 34669 ft 424 kts 170°
2026-05-07 14:34 43.13974 10.82848 34155 ft 422 kts 170°
2026-05-07 14:34 43.11199 10.84116 33579 ft 419 kts 170°
2026-05-07 14:35 43.08448 10.85369 33107 ft 414 kts 171°
2026-05-07 14:35 43.05724 10.86605 32606 ft 410 kts 171°
2026-05-07 14:35 43.03023 10.87825 32112 ft 407 kts 171°
2026-05-07 14:35 43.00342 10.89039 31625 ft 404 kts 171°
2026-05-07 14:36 42.97679 10.90249 31140 ft 401 kts 171°
2026-05-07 14:36 42.95032 10.91449 30677 ft 399 kts 171°
2026-05-07 14:36 42.92405 10.92640 30213 ft 397 kts 171°
2026-05-07 14:36 42.89795 10.93820 29678 ft 394 kts 171°
2026-05-07 14:37 42.87213 10.94991 29283 ft 388 kts 171°
2026-05-07 14:37 42.82163 10.97497 28406 ft 390 kts 161°
2026-05-07 14:37 42.79870 10.99539 27960 ft 399 kts 148°
2026-05-07 14:38 42.77914 11.02267 27490 ft 409 kts 134°
2026-05-07 14:38 42.76334 11.05518 27012 ft 411 kts 128°
2026-05-07 14:38 42.74805 11.08801 26517 ft 410 kts 128°
2026-05-07 14:38 42.73273 11.12059 26024 ft 408 kts 129°
2026-05-07 14:39 42.71755 11.15262 25515 ft 408 kts 128°
2026-05-07 14:39 42.70216 11.18503 24997 ft 408 kts 128°
2026-05-07 14:39 42.68674 11.21747 24459 ft 408 kts 128°
2026-05-07 14:39 42.67147 11.24969 23900 ft 403 kts 128°
2026-05-07 14:40 42.65645 11.28139 23353 ft 396 kts 128°
2026-05-07 14:40 42.64161 11.31265 22794 ft 389 kts 128°
2026-05-07 14:40 42.62709 11.34320 22312 ft 383 kts 128°
2026-05-07 14:40 42.61266 11.37352 21811 ft 382 kts 127°
2026-05-07 14:41 42.59827 11.40370 21324 ft 381 kts 127°
2026-05-07 14:41 42.58385 11.43379 20839 ft 380 kts 127°
2026-05-07 14:41 42.56944 11.46384 20348 ft 379 kts 127°
2026-05-07 14:41 42.55392 11.49250 19863 ft 374 kts 137°
2026-05-07 14:42 42.53473 11.51540 19427 ft 361 kts 150°
2026-05-07 14:42 42.51323 11.53127 19000 ft 345 kts 163°
2026-05-07 14:42 42.49090 11.54183 18602 ft 336 kts 166°
2026-05-07 14:42 42.46900 11.55197 18190 ft 329 kts 165°
2026-05-07 14:43 42.44750 11.56205 17768 ft 322 kts 165°
2026-05-07 14:43 42.42658 11.57188 17384 ft 315 kts 165°
2026-05-07 14:43 42.40590 11.58157 17042 ft 315 kts 165°
2026-05-07 14:43 42.38512 11.59130 16678 ft 317 kts 165°
2026-05-07 14:44 42.36425 11.60109 16332 ft 317 kts 165°
2026-05-07 14:44 42.34346 11.61080 15987 ft 315 kts 165°
2026-05-07 14:44 42.32278 11.62045 15647 ft 314 kts 165°
2026-05-07 14:44 42.30224 11.63004 15380 ft 309 kts 165°
2026-05-07 14:45 42.28224 11.63939 15228 ft 296 kts 165°
2026-05-07 14:45 42.26303 11.64838 14870 ft 290 kts 165°
2026-05-07 14:45 42.24400 11.65698 14642 ft 286 kts 166°
2026-05-07 14:45 42.22513 11.66514 14396 ft 283 kts 166°
2026-05-07 14:46 42.20637 11.67315 14150 ft 281 kts 166°
2026-05-07 14:46 42.18772 11.68109 13905 ft 280 kts 166°
2026-05-07 14:46 42.16940 11.68885 13657 ft 279 kts 166°
2026-05-07 14:46 42.15087 11.69673 13392 ft 278 kts 166°
2026-05-07 14:47 42.13244 11.70461 13129 ft 277 kts 166°
2026-05-07 14:47 42.11407 11.71245 12870 ft 276 kts 166°
2026-05-07 14:47 42.09577 11.72026 12616 ft 276 kts 166°
2026-05-07 14:47 42.07764 11.72851 12354 ft 276 kts 158°
2026-05-07 14:48 42.06284 11.74469 12113 ft 279 kts 126°
2026-05-07 14:48 42.05663 11.76912 11865 ft 280 kts 92°
2026-05-07 14:48 42.06038 11.79451 11623 ft 278 kts 70°
2026-05-07 14:48 42.06672 11.81905 11401 ft 277 kts 72°
2026-05-07 14:49 42.07268 11.84361 11203 ft 276 kts 69°
2026-05-07 14:49 42.08302 11.86483 11001 ft 272 kts 39°
2026-05-07 14:49 42.09942 11.87645 10755 ft 266 kts
2026-05-07 14:49 42.11751 11.87602 10508 ft 260 kts 341°
2026-05-07 14:50 42.13475 11.86870 10261 ft 259 kts 339°
2026-05-07 14:50 42.15192 11.86126 10015 ft 259 kts 339°
2026-05-07 14:50 42.16908 11.85385 9756 ft 258 kts 340°
2026-05-07 14:50 42.18618 11.84647 9485 ft 257 kts 340°
2026-05-07 14:51 42.20320 11.83917 9221 ft 256 kts 340°
2026-05-07 14:51 42.22018 11.83324 8963 ft 255 kts 354°
2026-05-07 14:51 42.23769 11.83602 8704 ft 257 kts 19°
2026-05-07 14:51 42.25263 11.84869 8453 ft 259 kts 46°
2026-05-07 14:52 42.26199 11.86916 8222 ft 257 kts 74°
2026-05-07 14:52 42.26380 11.89286 8022 ft 254 kts 100°
2026-05-07 14:52 42.25816 11.91517 7817 ft 251 kts 125°
2026-05-07 14:52 42.24630 11.93191 7578 ft 247 kts 148°
2026-05-07 14:53 42.23182 11.94442 7165 ft 247 kts 150°
2026-05-07 14:53 42.21728 11.95672 6827 ft 245 kts 149°
2026-05-07 14:53 42.20290 11.96886 6504 ft 243 kts 149°
2026-05-07 14:53 42.18864 11.98092 6181 ft 241 kts 150°
2026-05-07 14:54 42.17451 11.99288 6039 ft 239 kts 150°
2026-05-07 14:54 42.16044 12.00478 6041 ft 239 kts 149°
2026-05-07 14:54 42.14633 12.01669 6049 ft 239 kts 149°
2026-05-07 14:54 42.13222 12.02859 6057 ft 240 kts 149°
2026-05-07 14:55 42.11839 12.04123 6068 ft 241 kts 140°
2026-05-07 14:55 42.10660 12.05736 6072 ft 243 kts 133°
2026-05-07 14:55 42.09518 12.07417 6062 ft 245 kts 133°
2026-05-07 14:55 42.08364 12.09105 5806 ft 243 kts 133°
2026-05-07 14:56 42.07217 12.10771 5564 ft 242 kts 133°
2026-05-07 14:56 42.06089 12.12405 5324 ft 240 kts 133°
2026-05-07 14:56 42.04949 12.14045 5083 ft 239 kts 133°
2026-05-07 14:56 42.03811 12.15674 4841 ft 238 kts 133°
2026-05-07 14:57 42.02674 12.17295 4564 ft 238 kts 133°
2026-05-07 14:57 42.01496 12.18831 4087 ft 235 kts 146°
2026-05-07 14:57 42.00040 12.19673 3766 ft 225 kts 163°
2026-05-07 14:57 41.98540 12.20297 3387 ft 219 kts 163°
2026-05-07 14:58 41.97147 12.20879 2992 ft 207 kts 163°
2026-05-07 14:58 41.95806 12.21442 2578 ft 197 kts 162°
2026-05-07 14:58 41.94525 12.21981 2122 ft 188 kts 162°
2026-05-07 14:58 41.93313 12.22490 1831 ft 178 kts 163°
2026-05-07 14:59 41.92166 12.22973 1580 ft 167 kts 163°
2026-05-07 14:59 41.91098 12.23421 1371 ft 155 kts 163°
2026-05-07 14:59 41.90102 12.23838 1171 ft 146 kts 165°
2026-05-07 14:59 41.89130 12.24237 939 ft 146 kts 166°
2026-05-07 15:00 41.88173 12.24641 750 ft 143 kts 166°
2026-05-07 15:00 41.87226 12.25051 582 ft 145 kts 170°
2026-05-07 15:00 41.86261 12.25448 425 ft 145 kts 167°
2026-05-07 15:00 41.85310 12.25844 216 ft 142 kts 165°
2026-05-07 15:01 41.84366 12.26251 54 ft 142 kts 166°
2026-05-07 15:01 41.83479 12.26600 16 ft 118 kts 161°
2026-05-07 15:01 41.82856 12.26877 13 ft 79 kts 163°
2026-05-07 15:01 41.82380 12.27077 10 ft 62 kts 161°
2026-05-07 15:02 41.82093 12.27154 10 ft 31 kts 188°
2026-05-07 15:02 41.81906 12.27094 11 ft 21 kts 191°
2026-05-07 15:02 41.81776 12.27054 11 ft 14 kts 192°
2026-05-07 15:02 41.81689 12.27045 12 ft 12 kts 170°
2026-05-07 15:03 41.81613 12.27077 12 ft 11 kts 161°
2026-05-07 15:03 41.81535 12.27109 12 ft 15 kts 163°
2026-05-07 15:03 41.81403 12.27162 12 ft 24 kts 163°
2026-05-07 15:03 41.81217 12.27241 12 ft 31 kts 162°
2026-05-07 15:04 41.81032 12.27319 12 ft 24 kts 161°
2026-05-07 15:04 41.80926 12.27354 13 ft 14 kts 174°
2026-05-07 15:04 41.80836 12.27335 13 ft 13 kts 192°
2026-05-07 15:04 41.80755 12.27314 13 ft 11 kts 189°
2026-05-07 15:05 41.80685 12.27283 13 ft 10 kts 212°
2026-05-07 15:05 41.80647 12.27197 13 ft 13 kts 251°
2026-05-07 15:05 41.80615 12.27077 13 ft 15 kts 250°
2026-05-07 15:05 41.80576 12.26937 13 ft 17 kts 249°
2026-05-07 15:06 41.80533 12.26781 14 ft 19 kts 250°
2026-05-07 15:06 41.80488 12.26615 17 ft 19 kts 250°
2026-05-07 15:06 41.80445 12.26462 15 ft 14 kts 250°
2026-05-07 15:06 41.80386 12.26363 15 ft 15 kts 193°
2026-05-07 15:07 41.80291 12.26398 14 ft 13 kts 160°
2026-05-07 15:07 41.80206 12.26404 14 ft 12 kts 204°
2026-05-07 15:07 41.80135 12.26357 14 ft 11 kts 206°
2026-05-07 15:07 41.80071 12.26317 14 ft 11 kts 204°
2026-05-07 15:08 41.79987 12.26267 14 ft 14 kts 204°
2026-05-07 15:08 41.79899 12.26212 15 ft 14 kts 205°
2026-05-07 15:08 41.79806 12.26153 14 ft 15 kts 206°
2026-05-07 15:08 41.79708 12.26076 14 ft 17 kts 206°
2026-05-07 15:09 41.79601 12.26011 14 ft 16 kts 205°
2026-05-07 15:09 41.79522 12.25962 14 ft 7 kts 205°
2026-05-07 15:09 41.79495 12.25943 14 ft 4 kts 216°
2026-05-07 15:09 41.79493 12.25919 14 ft 2 kts 282°
2026-05-07 15:10 41.79503 12.25888 15 ft 2 kts 293°
2026-05-07 15:10 41.79506 12.25878 15 ft 1 kts 294°
2026-05-07 15:10 41.79508 12.25871 14 ft 1 kts 295°
2026-05-07 15:10 41.79510 12.25868 14 ft 0 kts 295°
2026-05-07 15:11 41.79510 12.25867 14 ft 0 kts 295°
2026-05-07 15:11 41.79510 12.25866 14 ft 0 kts 295°